Voltar ao catálogo

COSMOS 2285

AtivoNavegaçãoLEO
NORAD 23189·PAYLOAD·🇷🇺 Russia

Lançado Aug 2, 1994 de Plesetsk Cosmodrome

Loading…

Próximas Passagens (próximas 24 horas)

TLE

AtualizadoSource: Space-Track

Época: Sep 14, 2026, 04:07 UTC

1 23189U 94045A   26257.17189706  .00000021  00000-0  47917-4 0  9991
2 23189  74.0310 326.3505 0026083 304.2548  84.3702 13.72530841608607

Acompanhe COSMOS 2285 em tempo real com AllMySat

Download on the App Store